"Pseudo-MPEC" for P10Lp1b

Created 2019 Jan 15 15:18:27 UT using Find_Orb

Click here for an explanation of pseudo-MPECs

 
 Astrometry: 
     P10Lp1b  C2019 01 11LKmx9hj(yvcXGNtwPLSnfkZy^qF#gO):Ql:?\AstrometryB?X,wF51
     P10Lp1b  C2019 01 1113Vmq:?=q,m!GRlaKN^jajBA$nRBF=redacted;UdtI\4BS`NaOHF51
     P10Lp1b  C2019 01 11/ek+`Iy8lyVG=*JSrl-Xua?$c2yM+click#N:B@E(ixu5wQ]n5aHF51
     P10Lp1b  C2019 01 11_-ZL`aWd5K`UJiyHd4yoKG*3o7uhere$W$Oqe/CKJTi_%Po)sn+]F51
     P10Lp1b ^C2019 01 12.32682605 33 00.389+06 17 06.22   ~1CJI 21.09GVNEOCP568
     P10Lp1b ^C2019 01 12.32777405 33 00.567+06 17 02.91   ~1CJI 21.11GVNEOCP568
     P10Lp1b ^C2019 01 12.32872105 33 00.745+06 16 59.45   ~1CJI 21.37GVNEOCP568
     P10Lp1b pC2019 01 14u!'JY9N.0mq-uab[@lPIexTZ8.BCxqx%AforXrI@(li5gPwJiRs.L01
     P10Lp1b KC2019 01 14-cYausn$nP@:t/'J,*OO6H]gPmRoe92'rNWM!%+o/K/)[kTAO)K?L01
     P10Lp1b pC2019 01 14+A,qIXE+G_6pnZxQexplanation%,L.iwMt,40Lo]2f,kffPgKA]L01
     P10Lp1b  C2019 01 15.23262 05 47 56.21 +02 43 48.9    ~1F6I 20.8 GVNEOCPI52
     P10Lp1b  C2019 01 15.23387 05 47 56.60 +02 43 42.0    ~1F6I       VNEOCPI52
     P10Lp1b  C2019 01 15.23511 05 47 56.97 +02 43 35.0    ~1F6I       VNEOCPI52
     P10Lp1b  C2019 01 15.23636 05 47 57.41 +02 43 28.3    ~1F6I       VNEOCPI52

Station data:
(568) Mauna Kea  (N19.826116 W155.472200)  US/Hawaii.
(F51) Pan-STARRS 1, Haleakala  (N20.707235 W156.255910)  US/Hawaii.
   Observers N. Primak, A. Schultz, S. Watters, J. Thiel, T. Goggia. Measurer
   PS1 Science Consortium. 1.8-m Ritchey-Chrétien + CCD.
(I52) Steward Observatory, Mt. Lemmon Station  (N32.442547 W110.788920)
   US/Arizona.  Observers B. M. Africano, E. J. Christensen, G. A. Farneth,
   D. C. Fuls, A. R. Gibbs, A. D. Grauer, H. Groeller, J. A. Johnson, R. A.
   Kowalski, S. M. Larson, G. J. Leonard, R. L. Seaman, F. C. Shelly. 1.0-m
   reflector + CCD.
(L01) Višnjan Observatory, Tičan  (N45.290900 E13.749300)  Croatia.
   Observers K. Korlević, E. Pettarin. Measurer E. Pettarin. 1.0-m f/2.9
   reflector + CCD.

Orbital elements:  P10Lp1b
   Perihelion 2019 Feb 7.081195 +/- 0.00311 TT =  1:56:55 (JD 2458521.581195)
Epoch 2019 Jan 15.0 TT = JDT 2458498.5   Earth MOID: 0.0107   Ma: 0.0217
M 352.55496030 +/- 0.06             (J2000 ecliptic)          AutoNEOCP
n   0.32255867 +/- 0.00286          Peri.  312.56006 +/- 0.07
a   2.10570193 +/- 0.0125           Node   188.47609 +/- 0.08
e   0.5323615 +/- 0.00276           Incl.    1.02864 +/- 0.0044
P   3.06                   H 26.3   G  0.15   U  8.8  
q 0.98470725 +/- 1.8e-5    Q 3.22669662 +/- 0.0247
From 14 observations 2019 Jan. 11-15; mean residual 0".27
Residuals in arcseconds: 
190111 F51  .16+  .04-    190112 568  .02+  .12+    190115 I52  .42+  .45+    
190111 F51  .14+  .08-    190112 568  .00   .05+    190115 I52  .16+  .26+    
190111 F51  .51-  .16+    190114 L01  .28-  .70-    190115 I52  .34-  .08-    
190111 F51  .23+  .11-    190114 L01  .05-  .44-    190115 I52  .15+  .06-    
190112 568  .03+  .04+    190114 L01  .09-  .52+    

Ephemerides (geocentric):
Date (UTC) HH   RA              Dec         delta   r     elong  mag " sig PA
---- -- -- --  -------------   -----------  ------ ------ -----  --- ---- ---
2019 01 15 15  05 50 33.325   +02 09 08.37  .04881 1.0244 145.8 21.2 .460   4
2019 01 15 16  05 50 50.638   +02 05 10.58  .04865 1.0242 145.8 21.2 .459   6
2019 01 15 17  05 51 08.076   +02 01 11.25  .04848 1.0241 145.8 21.2 .459   8
2019 01 15 18  05 51 25.639   +01 57 10.35  .04832 1.0239 145.8 21.2 .459  10
2019 01 15 19  05 51 43.329   +01 53 07.89  .04816 1.0238 145.7 21.1 .460  12
2019 01 15 20  05 52 01.147   +01 49 03.84  .04799 1.0236 145.7 21.1 .461  14
2019 01 15 21  05 52 19.095   +01 44 58.19  .04783 1.0235 145.7 21.1 .463  16
2019 01 15 22  05 52 37.172   +01 40 50.92  .04766 1.0234 145.7 21.1 .465  18
2019 01 15 23  05 52 55.382   +01 36 42.03  .04750 1.0232 145.7 21.1 .468  21
2019 01 16 00  05 53 13.724   +01 32 31.49  .04734 1.0231 145.7 21.1 .471  23
2019 01 16 01  05 53 32.201   +01 28 19.29  .04717 1.0229 145.7 21.1 .475  25
2019 01 16 02  05 53 50.813   +01 24 05.41  .04701 1.0228 145.7 21.1 .480  28
2019 01 16 03  05 54 09.561   +01 19 49.85  .04685 1.0227 145.6 21.1 .486  30
2019 01 16 04  05 54 28.448   +01 15 32.57  .04668 1.0225 145.6 21.1 .492  32
2019 01 16 05  05 54 47.474   +01 11 13.58  .04652 1.0224 145.6 21.1 .500  35
2019 01 16 06  05 55 06.640   +01 06 52.85  .04636 1.0222 145.6 21.1 .508  37
2019 01 16 07  05 55 25.948   +01 02 30.37  .04620 1.0221 145.6 21.1 .517  39
2019 01 16 08  05 55 45.400   +00 58 06.12  .04604 1.0220 145.6 21.1 .527  42
2019 01 16 09  05 56 04.996   +00 53 40.08  .04587 1.0218 145.6 21.0 .539  44
2019 01 16 10  05 56 24.738   +00 49 12.24  .04571 1.0217 145.6 21.0 .551  46
2019 01 16 11  05 56 44.628   +00 44 42.59  .04555 1.0215 145.6 21.0 .564  48
2019 01 16 12  05 57 04.666   +00 40 11.10  .04539 1.0214 145.5 21.0 .578  50
2019 01 16 13  05 57 24.855   +00 35 37.76  .04523 1.0213 145.5 21.0 .593  52
2019 01 16 14  05 57 45.196   +00 31 02.55  .04507 1.0211 145.5 21.0 .609  55
2019 01 16 15  05 58 05.690   +00 26 25.45  .04491 1.0210 145.5 21.0 .626  57
2019 01 16 16  05 58 26.338   +00 21 46.45  .04475 1.0209 145.5 21.0 .645  58
2019 01 16 17  05 58 47.143   +00 17 05.53  .04459 1.0207 145.5 21.0 .664  60
2019 01 16 18  05 59 08.105   +00 12 22.67  .04443 1.0206 145.5 21.0 .684  62
2019 01 16 19  05 59 29.227   +00 07 37.86  .04427 1.0205 145.5 21.0 .706  64
2019 01 16 20  05 59 50.510   +00 02 51.07  .04411 1.0203 145.5 21.0 .728  66
2019 01 16 21  06 00 11.955   -00 01 57.71  .04395 1.0202 145.4 21.0 .752  67
2019 01 16 22  06 00 33.564   -00 06 48.50  .04379 1.0200 145.4 20.9 .776  69
2019 01 16 23  06 00 55.339   -00 11 41.32  .04363 1.0199 145.4 20.9 .802  70
2019 01 17 00  06 01 17.281   -00 16 36.19  .04347 1.0198 145.4 20.9 .828  72
2019 01 17 01  06 01 39.392   -00 21 33.12  .04331 1.0196 145.4 20.9 .856  73
2019 01 17 02  06 02 01.674   -00 26 32.14  .04316 1.0195 145.4 20.9 .885  75
2019 01 17 03  06 02 24.128   -00 31 33.26  .04300 1.0194 145.4 20.9 .915  76
2019 01 17 04  06 02 46.756   -00 36 36.51  .04284 1.0192 145.4 20.9 .945  77
2019 01 17 05  06 03 09.560   -00 41 41.90  .04268 1.0191 145.4 20.9 .977  79
2019 01 17 06  06 03 32.542   -00 46 49.46  .04253 1.0190 145.3 20.9 1.01  80
2019 01 17 07  06 03 55.703   -00 51 59.20  .04237 1.0188 145.3 20.9 1.04  81
2019 01 17 08  06 04 19.046   -00 57 11.14  .04221 1.0187 145.3 20.9 1.08  82
2019 01 17 09  06 04 42.571   -01 02 25.30  .04205 1.0186 145.3 20.9 1.12  83
2019 01 17 10  06 05 06.281   -01 07 41.71  .04190 1.0184 145.3 20.9 1.15  84
2019 01 17 11  06 05 30.179   -01 13 00.38  .04174 1.0183 145.3 20.8 1.19  85
2019 01 17 12  06 05 54.264   -01 18 21.34  .04159 1.0182 145.3 20.8 1.23  86
2019 01 17 13  06 06 18.541   -01 23 44.60  .04143 1.0180 145.3 20.8 1.27  87
2019 01 17 14  06 06 43.010   -01 29 10.19  .04128 1.0179 145.2 20.8 1.31  88